����������;��������(kVARh)
2017-05-22 00:00;6,85
2017-05-22 00:15;6,9
2017-05-22 00:30;7,9
2017-05-22 00:45;13,85
2017-05-22 01:00;15,45
2017-05-22 01:15;11,6
2017-05-22 01:30;12
2017-05-22 01:45;13,7
2017-05-22 02:00;15,15
2017-05-22 02:15;13,15
2017-05-22 02:30;10,65
2017-05-22 02:45;11,4
2017-05-22 03:00;12,75
2017-05-22 03:15;11,5
2017-05-22 03:30;12,35
2017-05-22 03:45;12,25
2017-05-22 04:00;11,45
2017-05-22 04:15;13,1
2017-05-22 04:30;12,55
2017-05-22 04:45;11,3
2017-05-22 05:00;13,5
2017-05-22 05:15;12,45
2017-05-22 05:30;14,15
2017-05-22 05:45;13,5
2017-05-22 06:00;12,7
2017-05-22 06:15;10,8
2017-05-22 06:30;10,35
2017-05-22 06:45;10,8
2017-05-22 07:00;7,95
2017-05-22 07:15;11
2017-05-22 07:30;9,3
2017-05-22 07:45;8,9
2017-05-22 08:00;6,9
2017-05-22 08:15;8,85
2017-05-22 08:30;11,7
2017-05-22 08:45;17,9
2017-05-22 09:00;18,25
2017-05-22 09:15;19,05
2017-05-22 09:30;29,2
2017-05-22 09:45;33,85
2017-05-22 10:00;34
2017-05-22 10:15;31,85
2017-05-22 10:30;32,05
2017-05-22 10:45;32,55
2017-05-22 11:00;38,95
2017-05-22 11:15;42,3
2017-05-22 11:30;40,8
2017-05-22 11:45;40,95
2017-05-22 12:00;40,35
2017-05-22 12:15;43,1
2017-05-22 12:30;42,05
2017-05-22 12:45;44,25
2017-05-22 13:00;42,1
2017-05-22 13:15;43,1
2017-05-22 13:30;41,1
2017-05-22 13:45;42,7
2017-05-22 14:00;43,9
2017-05-22 14:15;45,3
2017-05-22 14:30;45,6
2017-05-22 14:45;46,25
2017-05-22 15:00;46,15
2017-05-22 15:15;44,05
2017-05-22 15:30;39,05
2017-05-22 15:45;43,25
2017-05-22 16:00;40,7
2017-05-22 16:15;39,15
2017-05-22 16:30;41,95
2017-05-22 16:45;41,25
2017-05-22 17:00;42,3
2017-05-22 17:15;42,2
2017-05-22 17:30;41,65
2017-05-22 17:45;41,65
2017-05-22 18:00;37,3
2017-05-22 18:15;38,6
2017-05-22 18:30;35,5
2017-05-22 18:45;32,8
2017-05-22 19:00;28,7
2017-05-22 19:15;27,9
2017-05-22 19:30;27,65
2017-05-22 19:45;25,45
2017-05-22 20:00;24,05
2017-05-22 20:15;23,05
2017-05-22 20:30;20,3
2017-05-22 20:45;17,15
2017-05-22 21:00;14,85
2017-05-22 21:15;18,05
2017-05-22 21:30;17,5
2017-05-22 21:45;16,65
2017-05-22 22:00;16,4
2017-05-22 22:15;18,6
2017-05-22 22:30;22
2017-05-22 22:45;20,65
2017-05-22 23:00;15,35
2017-05-22 23:15;17
2017-05-22 23:30;13,3
2017-05-22 23:45;13,3
2017-05-23 00:00;15,85
2017-05-23 00:15;15,25
2017-05-23 00:30;8,9
2017-05-23 00:45;8,7
2017-05-23 01:00;8,2
2017-05-23 01:15;11,4
2017-05-23 01:30;11,15
2017-05-23 01:45;10,45
2017-05-23 02:00;10,65
2017-05-23 02:15;10,95
2017-05-23 02:30;9,5
2017-05-23 02:45;8,6
2017-05-23 03:00;4,7
2017-05-23 03:15;5,3
2017-05-23 03:30;6,4
2017-05-23 03:45;6,95
2017-05-23 04:00;6,35
2017-05-23 04:15;5,8
2017-05-23 04:30;6,8
2017-05-23 04:45;6,3
2017-05-23 05:00;5,9
2017-05-23 05:15;8,3
2017-05-23 05:30;6,5
2017-05-23 05:45;8
2017-05-23 06:00;8,7
2017-05-23 06:15;7,35
2017-05-23 06:30;12,15
2017-05-23 06:45;15,75
2017-05-23 07:00;9,25
2017-05-23 07:15;11,8
2017-05-23 07:30;12,1
2017-05-23 07:45;16,45
2017-05-23 08:00;16,9
2017-05-23 08:15;18,35
2017-05-23 08:30;19,05
2017-05-23 08:45;25
2017-05-23 09:00;30,8
2017-05-23 09:15;32,65
2017-05-23 09:30;32,95
2017-05-23 09:45;36,3
2017-05-23 10:00;47,9
2017-05-23 10:15;51,65
2017-05-23 10:30;53,6
2017-05-23 10:45;57,2
2017-05-23 11:00;54,9
2017-05-23 11:15;52,7
2017-05-23 11:30;55,95
2017-05-23 11:45;52,95
2017-05-23 12:00;30,55
2017-05-23 12:15;36,45
2017-05-23 12:30;62,5
2017-05-23 12:45;64,8
2017-05-23 13:00;58,25
2017-05-23 13:15;57,85
2017-05-23 13:30;57,95
2017-05-23 13:45;56,75
2017-05-23 14:00;59,8
2017-05-23 14:15;59,65
2017-05-23 14:30;63,05
2017-05-23 14:45;59,05
2017-05-23 15:00;60,55
2017-05-23 15:15;59,15
2017-05-23 15:30;59,1
2017-05-23 15:45;60
2017-05-23 16:00;57,45
2017-05-23 16:15;59,6
2017-05-23 16:30;56,45
2017-05-23 16:45;58,15
2017-05-23 17:00;54,2
2017-05-23 17:15;48,9
2017-05-23 17:30;42,9
2017-05-23 17:45;46,7
2017-05-23 18:00;51,95
2017-05-23 18:15;48,15
2017-05-23 18:30;44,95
2017-05-23 18:45;38,45
2017-05-23 19:00;29,15
2017-05-23 19:15;24,6
2017-05-23 19:30;28,3
2017-05-23 19:45;25,45
2017-05-23 20:00;22,45
2017-05-23 20:15;20,9
2017-05-23 20:30;17,7
2017-05-23 20:45;14,35
2017-05-23 21:00;13,15
2017-05-23 21:15;14,75
2017-05-23 21:30;16,85
2017-05-23 21:45;17,05
2017-05-23 22:00;17,5
2017-05-23 22:15;14,5
2017-05-23 22:30;14,9
2017-05-23 22:45;14,85
2017-05-23 23:00;14,8
2017-05-23 23:15;13,75
2017-05-23 23:30;15,75
2017-05-23 23:45;12,4
2017-05-24 00:00;9,55
2017-05-24 00:15;10,8
2017-05-24 00:30;9,95
2017-05-24 00:45;11,15
2017-05-24 01:00;13
2017-05-24 01:15;5
2017-05-24 01:30;1,65
2017-05-24 01:45;2,55
2017-05-24 02:00;3,15
2017-05-24 02:15;3,45
2017-05-24 02:30;3,5
2017-05-24 02:45;2,8
2017-05-24 03:00;3,3
2017-05-24 03:15;3,5
2017-05-24 03:30;2,95
2017-05-24 03:45;3,65
2017-05-24 04:00;4,6
2017-05-24 04:15;1,65
2017-05-24 04:30;1,9
2017-05-24 04:45;1,2
2017-05-24 05:00;1,85
2017-05-24 05:15;2,8
2017-05-24 05:30;3,25
2017-05-24 05:45;3,05
2017-05-24 06:00;2,3
2017-05-24 06:15;1,25
2017-05-24 06:30;8,25
2017-05-24 06:45;3,5
2017-05-24 07:00;7,85
2017-05-24 07:15;12,85
2017-05-24 07:30;14,2
2017-05-24 07:45;16,85
2017-05-24 08:00;20,5
2017-05-24 08:15;18,15
2017-05-24 08:30;26,6
2017-05-24 08:45;30,7
2017-05-24 09:00;33,25
2017-05-24 09:15;35,65
2017-05-24 09:30;37,55
2017-05-24 09:45;35,4
2017-05-24 10:00;39,5
2017-05-24 10:15;70,35
2017-05-24 10:30;64,55
2017-05-24 10:45;41,1
2017-05-24 11:00;53,8
2017-05-24 11:15;48,55
2017-05-24 11:30;47,75
2017-05-24 11:45;50,55
2017-05-24 12:00;49,1
2017-05-24 12:15;48,05
2017-05-24 12:30;53,95
2017-05-24 12:45;54,6
2017-05-24 13:00;52,05
2017-05-24 13:15;46,45
2017-05-24 13:30;49,2
2017-05-24 13:45;51,2
2017-05-24 14:00;45,65
2017-05-24 14:15;49,05
2017-05-24 14:30;46,3
2017-05-24 14:45;48,05
2017-05-24 15:00;46,85
2017-05-24 15:15;45,5
2017-05-24 15:30;45,4
2017-05-24 15:45;43,3
2017-05-24 16:00;41,9
2017-05-24 16:15;46,05
2017-05-24 16:30;39,45
2017-05-24 16:45;40,5
2017-05-24 17:00;40,5
2017-05-24 17:15;33,9
2017-05-24 17:30;29,95
2017-05-24 17:45;40,05
2017-05-24 18:00;30,85
2017-05-24 18:15;33
2017-05-24 18:30;38,45
2017-05-24 18:45;38,3
2017-05-24 19:00;26,1
2017-05-24 19:15;22,95
2017-05-24 19:30;26,65
2017-05-24 19:45;25,9
2017-05-24 20:00;22,6
2017-05-24 20:15;20,35
2017-05-24 20:30;19,1
2017-05-24 20:45;17,4
2017-05-24 21:00;24,8
2017-05-24 21:15;20,9
2017-05-24 21:30;14,65
2017-05-24 21:45;16,6
2017-05-24 22:00;16,55
2017-05-24 22:15;11,95
2017-05-24 22:30;7,7
2017-05-24 22:45;8,3
2017-05-24 23:00;9,45
2017-05-24 23:15;11,3
2017-05-24 23:30;9,9
2017-05-24 23:45;7,95
2017-05-25 00:00;11,2
2017-05-25 00:15;9,65
2017-05-25 00:30;10,35
2017-05-25 00:45;12,1
2017-05-25 01:00;11
2017-05-25 01:15;11,45
2017-05-25 01:30;10,4
2017-05-25 01:45;4
2017-05-25 02:00;2,05
2017-05-25 02:15;2,75
2017-05-25 02:30;1,75
2017-05-25 02:45;1,5
2017-05-25 03:00;2,1
2017-05-25 03:15;3,5
2017-05-25 03:30;3,4
2017-05-25 03:45;3,85
2017-05-25 04:00;2,1
2017-05-25 04:15;2,2
2017-05-25 04:30;2,85
2017-05-25 04:45;2,7
2017-05-25 05:00;2,15
2017-05-25 05:15;3,15
2017-05-25 05:30;4,2
2017-05-25 05:45;4,3
2017-05-25 06:00;3,45
2017-05-25 06:15;3,25
2017-05-25 06:30;11,2
2017-05-25 06:45;6,45
2017-05-25 07:00;4,85
2017-05-25 07:15;10,65
2017-05-25 07:30;13,85
2017-05-25 07:45;22,5
2017-05-25 08:00;26,75
2017-05-25 08:15;25,25
2017-05-25 08:30;29,6
2017-05-25 08:45;35
2017-05-25 09:00;37,35
2017-05-25 09:15;40,9
2017-05-25 09:30;45,95
2017-05-25 09:45;43,15
2017-05-25 10:00;43,45
2017-05-25 10:15;49,1
2017-05-25 10:30;50,05
2017-05-25 10:45;50,55
2017-05-25 11:00;51,95
2017-05-25 11:15;45,95
2017-05-25 11:30;45,4
2017-05-25 11:45;49,55
2017-05-25 12:00;53,35
2017-05-25 12:15;50,1
2017-05-25 12:30;45,4
2017-05-25 12:45;47,65
2017-05-25 13:00;48,3
2017-05-25 13:15;47,6
2017-05-25 13:30;50,6
2017-05-25 13:45;50,35
2017-05-25 14:00;48,25
2017-05-25 14:15;51,35
2017-05-25 14:30;53,65
2017-05-25 14:45;52,55
2017-05-25 15:00;54,4
2017-05-25 15:15;54,5
2017-05-25 15:30;54,5
2017-05-25 15:45;50,2
2017-05-25 16:00;48,15
2017-05-25 16:15;46,5
2017-05-25 16:30;46,9
2017-05-25 16:45;45,95
2017-05-25 17:00;44,25
2017-05-25 17:15;44,35
2017-05-25 17:30;43,55
2017-05-25 17:45;37,95
2017-05-25 18:00;36,65
2017-05-25 18:15;36
2017-05-25 18:30;34,45
2017-05-25 18:45;31,8
2017-05-25 19:00;33,05
2017-05-25 19:15;24,2
2017-05-25 19:30;23,2
2017-05-25 19:45;25,7
2017-05-25 20:00;22,95
2017-05-25 20:15;17,4
2017-05-25 20:30;19,1
2017-05-25 20:45;24,75
2017-05-25 21:00;20
2017-05-25 21:15;22,15
2017-05-25 21:30;25,15
2017-05-25 21:45;23,5
2017-05-25 22:00;22,7
2017-05-25 22:15;20,5
2017-05-25 22:30;18,95
2017-05-25 22:45;15,2
2017-05-25 23:00;14,75
2017-05-25 23:15;15,45
2017-05-25 23:30;14,6
2017-05-25 23:45;15,5
2017-05-26 00:00;6,8
2017-05-26 00:15;4,75
2017-05-26 00:30;5,65
2017-05-26 00:45;4,7
2017-05-26 01:00;1,95
2017-05-26 01:15;2,2
2017-05-26 01:30;2,65
2017-05-26 01:45;3,1
2017-05-26 02:00;3,1
2017-05-26 02:15;2,05
2017-05-26 02:30;2,55
2017-05-26 02:45;3,25
2017-05-26 03:00;3,15
2017-05-26 03:15;3,3
2017-05-26 03:30;3,9
2017-05-26 03:45;1,85
2017-05-26 04:00;2,7
2017-05-26 04:15;3,4
2017-05-26 04:30;2,2
2017-05-26 04:45;3,95
2017-05-26 05:00;4,1
2017-05-26 05:15;4,2
2017-05-26 05:30;5,5
2017-05-26 05:45;4,65
2017-05-26 06:00;4,45
2017-05-26 06:15;2,6
2017-05-26 06:30;2,5
2017-05-26 06:45;9,95
2017-05-26 07:00;4,9
2017-05-26 07:15;4,15
2017-05-26 07:30;9,45
2017-05-26 07:45;19,4
2017-05-26 08:00;28,6
2017-05-26 08:15;25,95
2017-05-26 08:30;27,3
2017-05-26 08:45;27,4
2017-05-26 09:00;28,35
2017-05-26 09:15;33,2
2017-05-26 09:30;37,95
2017-05-26 09:45;41,5
2017-05-26 10:00;41,4
2017-05-26 10:15;46,8
2017-05-26 10:30;46,4
2017-05-26 10:45;46,2
2017-05-26 11:00;53,9
2017-05-26 11:15;51,9
2017-05-26 11:30;53,3
2017-05-26 11:45;54,5
2017-05-26 12:00;52,65
2017-05-26 12:15;52,55
2017-05-26 12:30;55,55
2017-05-26 12:45;56,2
2017-05-26 13:00;52,85
2017-05-26 13:15;51,85
2017-05-26 13:30;56,35
2017-05-26 13:45;55,9
2017-05-26 14:00;53,95
2017-05-26 14:15;54,45
2017-05-26 14:30;54,95
2017-05-26 14:45;57,05
2017-05-26 15:00;54,7
2017-05-26 15:15;52,55
2017-05-26 15:30;48,45
2017-05-26 15:45;48
2017-05-26 16:00;47,5
2017-05-26 16:15;46,1
2017-05-26 16:30;48,7
2017-05-26 16:45;41,45
2017-05-26 17:00;41,4
2017-05-26 17:15;43,7
2017-05-26 17:30;44,65
2017-05-26 17:45;42,4
2017-05-26 18:00;37,8
2017-05-26 18:15;35,9
2017-05-26 18:30;33,7
2017-05-26 18:45;30,1
2017-05-26 19:00;25,45
2017-05-26 19:15;22,35
2017-05-26 19:30;21,5
2017-05-26 19:45;19,8
2017-05-26 20:00;16,95
2017-05-26 20:15;13,2
2017-05-26 20:30;15,2
2017-05-26 20:45;14,95
2017-05-26 21:00;11,05
2017-05-26 21:15;5,35
2017-05-26 21:30;11,2
2017-05-26 21:45;15,2
2017-05-26 22:00;11,85
2017-05-26 22:15;12,65
2017-05-26 22:30;12,25
2017-05-26 22:45;12,65
2017-05-26 23:00;14,35
2017-05-26 23:15;15,85
2017-05-26 23:30;14,75
2017-05-26 23:45;16,3
2017-05-27 00:00;16,15
2017-05-27 00:15;7,75
2017-05-27 00:30;6,95
2017-05-27 00:45;5,1
2017-05-27 01:00;3,9
2017-05-27 01:15;3,5
2017-05-27 01:30;1,2
2017-05-27 01:45;1,05
2017-05-27 02:00;2,95
2017-05-27 02:15;4,15
2017-05-27 02:30;3,35
2017-05-27 02:45;4,15
2017-05-27 03:00;2,55
2017-05-27 03:15;2,15
2017-05-27 03:30;2,95
2017-05-27 03:45;2
2017-05-27 04:00;2,3
2017-05-27 04:15;2,6
2017-05-27 04:30;1,05
2017-05-27 04:45;1,75
2017-05-27 05:00;3,05
2017-05-27 05:15;3
2017-05-27 05:30;4,45
2017-05-27 05:45;3,7
2017-05-27 06:00;3,35
2017-05-27 06:15;4,2
2017-05-27 06:30;2,45
2017-05-27 06:45;0,4
2017-05-27 07:00;1,9
2017-05-27 07:15;2,2
2017-05-27 07:30;3,8
2017-05-27 07:45;4,1
2017-05-27 08:00;3,2
2017-05-27 08:15;1,1
2017-05-27 08:30;4,55
2017-05-27 08:45;3,45
2017-05-27 09:00;8,95
2017-05-27 09:15;12,6
2017-05-27 09:30;11,75
2017-05-27 09:45;8,25
2017-05-27 10:00;9,75
2017-05-27 10:15;10,5
2017-05-27 10:30;9,55
2017-05-27 10:45;10,7
2017-05-27 11:00;14,3
2017-05-27 11:15;12,1
2017-05-27 11:30;12,45
2017-05-27 11:45;10
2017-05-27 12:00;10,55
2017-05-27 12:15;11,95
2017-05-27 12:30;12,5
2017-05-27 12:45;13,5
2017-05-27 13:00;14,65
2017-05-27 13:15;15,65
2017-05-27 13:30;14,65
2017-05-27 13:45;14,5
2017-05-27 14:00;14,15
2017-05-27 14:15;14
2017-05-27 14:30;15,85
2017-05-27 14:45;15,7
2017-05-27 15:00;16,45
2017-05-27 15:15;16,8
2017-05-27 15:30;20,8
2017-05-27 15:45;14,85
2017-05-27 16:00;14,9
2017-05-27 16:15;14,6
2017-05-27 16:30;19,15
2017-05-27 16:45;24,3
2017-05-27 17:00;23,9
2017-05-27 17:15;24,35
2017-05-27 17:30;24,95
2017-05-27 17:45;25,35
2017-05-27 18:00;23,75
2017-05-27 18:15;22,85
2017-05-27 18:30;22,85
2017-05-27 18:45;21,35
2017-05-27 19:00;20,45
2017-05-27 19:15;19,8
2017-05-27 19:30;18,9
2017-05-27 19:45;16,3
2017-05-27 20:00;15,45
2017-05-27 20:15;13,75
2017-05-27 20:30;12,75
2017-05-27 20:45;13,05
2017-05-27 21:00;7,35
2017-05-27 21:15;9,55
2017-05-27 21:30;9,85
2017-05-27 21:45;10,55
2017-05-27 22:00;10,95
2017-05-27 22:15;10,65
2017-05-27 22:30;13
2017-05-27 22:45;10,55
2017-05-27 23:00;15
2017-05-27 23:15;14,4
2017-05-27 23:30;14,85
2017-05-27 23:45;15,85
2017-05-28 00:00;12,05
2017-05-28 00:15;1,45
2017-05-28 00:30;0,75
2017-05-28 00:45;1,3
2017-05-28 01:00;2,2
2017-05-28 01:15;0,4
2017-05-28 01:30;2,2
2017-05-28 01:45;2,15
2017-05-28 02:00;1,45
2017-05-28 02:15;3,2
2017-05-28 02:30;2,1
2017-05-28 02:45;0,3
2017-05-28 03:00;1,85
2017-05-28 03:15;1,9
2017-05-28 03:30;1,45
2017-05-28 03:45;1,9
2017-05-28 04:00;1,15
2017-05-28 04:15;0,8
2017-05-28 04:30;1,5
2017-05-28 04:45;1,7
2017-05-28 05:00;1,65
2017-05-28 05:15;3,4
2017-05-28 05:30;2,6
2017-05-28 05:45;3,35
2017-05-28 06:00;3,55
2017-05-28 06:15;3
2017-05-28 06:30;2,8
2017-05-28 06:45;3
2017-05-28 07:00;2,15
2017-05-28 07:15;3,3
2017-05-28 07:30;2,15
2017-05-28 07:45;2,1
2017-05-28 08:00;1,4
2017-05-28 08:15;4,3
2017-05-28 08:30;5,7
2017-05-28 08:45;5,6
2017-05-28 09:00;9,3
2017-05-28 09:15;11,1
2017-05-28 09:30;10,45
2017-05-28 09:45;10,15
2017-05-28 10:00;10,25
2017-05-28 10:15;9,75
2017-05-28 10:30;14,7
2017-05-28 10:45;16,1
2017-05-28 11:00;19,3
2017-05-28 11:15;14,95
2017-05-28 11:30;13,1
2017-05-28 11:45;12,6
2017-05-28 12:00;14,1
2017-05-28 12:15;15,95
2017-05-28 12:30;19,05
2017-05-28 12:45;20,1
2017-05-28 13:00;19,05
2017-05-28 13:15;19,95
2017-05-28 13:30;17,8
2017-05-28 13:45;18,65
2017-05-28 14:00;18,75
2017-05-28 14:15;20,25
2017-05-28 14:30;20,3
2017-05-28 14:45;20,85
2017-05-28 15:00;25,8
2017-05-28 15:15;17,15
2017-05-28 15:30;15,7
2017-05-28 15:45;15,1
2017-05-28 16:00;16,15
2017-05-28 16:15;13,45
2017-05-28 16:30;14,45
2017-05-28 16:45;15,7
2017-05-28 17:00;17,15
2017-05-28 17:15;16,15
2017-05-28 17:30;14,35
2017-05-28 17:45;13,25
2017-05-28 18:00;13
2017-05-28 18:15;13,05
2017-05-28 18:30;11,85
2017-05-28 18:45;8,8
2017-05-28 19:00;7
2017-05-28 19:15;4,75
2017-05-28 19:30;5,15
2017-05-28 19:45;7,05
2017-05-28 20:00;7,4
2017-05-28 20:15;6
2017-05-28 20:30;9,65
2017-05-28 20:45;11,4
2017-05-28 21:00;10,25
2017-05-28 21:15;9,55
2017-05-28 21:30;10,1
2017-05-28 21:45;9,25
2017-05-28 22:00;7,85
2017-05-28 22:15;9,25
2017-05-28 22:30;10,35
2017-05-28 22:45;8,35
2017-05-28 23:00;9
2017-05-28 23:15;11,85
2017-05-28 23:30;12,1
2017-05-28 23:45;12,8

